Tracking 35237 objects as of 5-Sep-2026
HD Live streaming from Space Station
objects crossing your sky now

STARLINK-3362

Track STARLINK-3362 now!
10-day predictions
STARLINK-3362 is classified as:


NORAD ID: 51108
Int'l Code: 2022-005E
Launch date: January 19, 2022
Source: United States (US)
Launch site: AIR FORCE EASTERN TEST RANGE (AFETR)
Your satellite tracking list
Your tracking list is empty




NASA's NSSDC Master Catalog

Two Line Element Set (TLE):
1 51108U 22005E   26248.23904159  .00000353  00000-0  21038-4 0  9998
2 51108  53.1618 197.1135 0001335  90.9108 269.2047 15.35397324256068
Source of the keplerian elements: AFSPC